Location: Gerlach
(40.6516°N, 119.3568°W)
Time: 22:31:10
(UTC-08:00)

Transit 2A - All Passes

Search period start: 05 February 2023 00:00
Search period end: 15 February 2023 00:00
Orbit: 593 x 963 km, 66.7° (Epoch: 05 February)

Date Brightness Start Highest point End Pass type
(mag) Time Alt. Az. Time Alt. Az. Time Alt. Az.
05 Feb - 00:55:24 10° NNW 01:01:20 48° NE 01:07:28 10° SE night (unlit)
05 Feb - 02:39:00 10° NW 02:44:23 31° WSW 02:49:50 10° SSW night (unlit)
05 Feb - 15:35:36 10° S 15:39:51 34° ESE 15:44:31 10° NE daylight
05 Feb - 17:18:42 10° WSW 17:23:01 31° NW 17:27:46 10° NNE daylight
06 Feb - 00:21:04 10° NNW 00:26:40 36° NE 00:32:26 10° ESE night (unlit)
06 Feb - 02:04:08 10° NW 02:10:00 44° WSW 02:15:58 10° S night (unlit)
06 Feb - 15:01:54 10° SSE 15:05:34 22° ESE 15:09:30 10° NE daylight
06 Feb - 16:43:43 10° SW 16:48:19 44° NW 16:53:28 10° NNE daylight
06 Feb - 23:46:48 10° N 23:51:56 27° NE 23:57:12 10° ESE night (unlit)
07 Feb - 01:29:26 10° NW 01:35:35 63° WSW 01:41:50 10° SSE night (unlit)
07 Feb - 14:28:45 10° SE 14:31:20 14° ESE 14:34:01 10° ENE daylight
07 Feb - 16:08:57 10° SW 16:13:42 65° WNW 16:19:02 10° NNE daylight
07 Feb - 17:56:00 10° WNW 17:58:08 12° NW 18:00:20 10° N visible
07 Feb - 23:12:38 10° N 23:17:07 21° NE 23:21:43 10° E night (unlit)
08 Feb - 00:54:51 10° NNW 01:01:05 87° WSW 01:07:28 10° SSE night (unlit)
08 Feb - 02:40:26 10° WNW 02:43:30 14° WSW 02:46:36 10° SW night (unlit)
08 Feb - 15:34:24 10° SSW 15:39:10 85° ESE 15:44:32 10° NNE daylight
08 Feb - 17:20:01 10° W 17:23:12 16° NW 17:26:36 10° N daylight
08 Feb - 22:38:37 10° N 22:42:14 16° NE 22:45:55 10° ENE night (unlit)
09 Feb - 00:20:21 10° NNW 00:26:33 69° ENE 00:32:53 10° SE night (unlit)
09 Feb - 02:04:45 10° WNW 02:09:14 21° WSW 02:13:47 10° SSW night (unlit)
09 Feb - 15:00:04 10° SSW 15:04:43 56° ESE 15:09:54 10° NE daylight
09 Feb - 16:44:27 10° W 16:48:20 22° NW 16:52:33 10° N daylight
09 Feb - 22:04:56 10° NNE 22:07:17 12° NE 22:09:39 10° ENE visible
09 Feb - 23:45:55 10° NNW 23:51:56 50° NE 23:58:05 10° SE night (unlit)
10 Feb - 01:29:36 10° NW 01:34:56 30° WSW 01:40:19 10° SSW night (unlit)
10 Feb - 14:25:59 10° S 14:30:20 36° ESE 14:35:08 10° NE daylight
10 Feb - 16:09:12 10° WSW 16:13:33 30° NW 16:18:19 10° NNE daylight
10 Feb - 23:11:34 10° NNW 23:17:15 37° NE 23:23:05 10° ESE night (unlit)
11 Feb - 00:54:43 10° NW 01:00:33 42° WSW 01:06:28 10° S night (unlit)
11 Feb - 13:52:13 10° SSE 13:56:01 24° ESE 14:00:09 10° NE daylight
11 Feb - 15:34:12 10° SW 15:38:50 42° NW 15:44:00 10° NNE daylight
11 Feb - 22:37:17 10° N 22:42:31 28° NE 22:47:52 10° ESE visible
12 Feb - 00:19:58 10° NW 00:26:07 60° WSW 00:32:22 10° SSE night (unlit)
12 Feb - 13:18:57 10° SE 13:21:47 16° ESE 13:24:45 10° ENE daylight
12 Feb - 14:59:24 10° SW 15:04:12 62° WNW 15:09:36 10° NNE daylight
12 Feb - 16:46:35 10° WNW 16:48:41 12° NW 16:50:51 10° N daylight
12 Feb - 22:03:05 10° N 22:07:41 21° NE 22:12:24 10° E visible
12 Feb - 23:45:22 10° NNW 23:51:38 84° WSW 23:57:59 10° SSE night (unlit)
13 Feb - 01:31:08 10° WNW 01:34:00 13° WSW 01:36:53 10° SW night (unlit)
13 Feb - 14:24:48 10° SSW 14:29:38 89° SE 14:35:05 10° NNE daylight
13 Feb - 16:10:32 10° WNW 16:13:44 16° NW 16:17:07 10° N daylight
13 Feb - 21:29:01 10° N 21:32:48 16° NE 21:36:39 10° ENE visible
13 Feb - 23:10:51 10° NNW 23:17:04 72° ENE 23:23:25 10° SE night (unlit)
14 Feb - 00:55:21 10° WNW 00:59:45 20° WSW 01:04:10 10° SSW night (unlit)
14 Feb - 13:50:26 10° SSW 13:55:10 59° ESE 14:00:27 10° NE daylight
14 Feb - 15:34:57 10° W 15:38:51 22° NW 15:43:04 10° N daylight
14 Feb - 20:55:15 10° N 20:57:49 13° NE 21:00:27 10° ENE visible
14 Feb - 22:36:24 10° NNW 22:42:27 52° NE 22:48:39 10° SE visible
